Frederick, MD

4:57 PM EDT on April 23, 2017 (GMT -0400)
Frederick Municipal

Weather History for KFDK - November, 2013

Change the Weather History Date:

Friday, November 1, 2013

  Actual Average (KHGR) Record (KHGR)
Temperature  
Mean Temperature 60 °F -  
Max Temperature 73 °F 56 °F 73 °F (2003)
Min Temperature 46 °F 39 °F 33 °F (2002)
Degree Days  
Heating Degree Days 6    
Growing Degree Days 10 (Base 50)    
Moisture  
Dew Point 56 °F    
Average Humidity 82    
Maximum Humidity 100    
Minimum Humidity 41    
Precipitation  
Precipitation 0.02 in - - ()
Sea Level Pressure  
Sea Level Pressure 29.67 in    
Wind  
Wind Speed 13 mph (SSW)    
Max Wind Speed 26 mph    
Max Gust Speed 34 mph    
Visibility 10 miles    
Events Rain    
Averages and records for this station are not official NWS values.
T = Trace of Precipitation, MM = Missing Value Source: NWS Daily Summary

Daily Weather History Graph

Daily Weather History Graph

Search for Another Location

Airport or City:

Trip Planner

Search our weather history database for the weather conditions in past years. The results will help you decide how hot, cold, wet, or windy it might be!

Date:

Astronomy

Nov. 01, 2013 Rise Set
Actual Time 7:37 AM EDT 6:07 PM EDT
Civil Twilight 7:09 AM EDT 6:35 PM EDT
Nautical Twilight 6:38 AM EDT 7:07 PM EDT
Astronomical Twilight 6:06 AM EDT 7:38 PM EDT
Moon 5:28 AM EDT (11/1) 4:59 PM EDT (11/1)
Length of Visible Light 11h 25m
Length of Day
10h 29m
Waning Crescent, 4% of the Moon is Illuminated
Nov 1
Waning Crescent
Nov 3
New
Nov 10
First Quarter
Nov 17
Full
Nov 25
Last Quarter

Hourly Weather History & Observations

Time (EDT) Temp. Dew Point Humidity Pressure Visibility Wind Dir Wind Speed Gust Speed Precip Events Conditions
12:10 AM 64.4 °F 59.0 °F 83% 29.77 in 10.0 mi South 15.0 mph 25.3 mph N/A   Scattered Clouds
12:30 AM 66.2 °F 59.0 °F 78% 29.75 in 10.0 mi South 17.3 mph 24.2 mph N/A   Mostly Cloudy
12:50 AM 66.2 °F 59.0 °F 78% 29.75 in 10.0 mi South 21.9 mph 31.1 mph N/A   Mostly Cloudy
1:10 AM 66.2 °F 59.0 °F 78% 29.74 in 10.0 mi South 18.4 mph 28.8 mph N/A   Overcast
1:30 AM 64.4 °F 59.0 °F 83% 29.73 in 10.0 mi SSW 15.0 mph 24.2 mph N/A   Overcast
1:50 AM 66.2 °F 59.0 °F 78% 29.72 in 10.0 mi SSW 13.8 mph 24.2 mph N/A Rain Rain
2:10 AM 64.4 °F 59.0 °F 83% 29.71 in 10.0 mi South 10.4 mph 18.4 mph N/A Rain Rain
2:30 AM 64.4 °F 59.0 °F 83% 29.69 in 10.0 mi South 11.5 mph 16.1 mph N/A Rain Light Rain
2:50 AM 64.4 °F 60.8 °F 88% 29.68 in 10.0 mi South 10.4 mph - 0.01 in Rain Light Rain
3:10 AM 64.4 °F 60.8 °F 88% 29.68 in 10.0 mi South 10.4 mph - 0.01 in Rain Light Rain
3:30 AM 64.4 °F 60.8 °F 88% 29.66 in 10.0 mi South 12.7 mph 17.3 mph 0.01 in   Overcast
3:50 AM 66.2 °F 60.8 °F 83% 29.65 in 10.0 mi South 16.1 mph 21.9 mph 0.01 in   Overcast
4:10 AM 68.0 °F 62.6 °F 83% 29.63 in 10.0 mi South 13.8 mph 27.6 mph N/A   Overcast
4:30 AM 68.0 °F 62.6 °F 83% 29.62 in 10.0 mi South 23.0 mph 27.6 mph N/A   Mostly Cloudy
4:50 AM 68.0 °F 62.6 °F 83% 29.60 in 10.0 mi South 20.7 mph 28.8 mph N/A   Mostly Cloudy
5:10 AM 68.0 °F 62.6 °F 83% 29.59 in 10.0 mi South 20.7 mph 31.1 mph N/A   Mostly Cloudy
5:30 AM 68.0 °F 62.6 °F 83% 29.59 in 10.0 mi South 20.7 mph 33.4 mph N/A   Mostly Cloudy
5:50 AM 68.0 °F 62.6 °F 83% 29.60 in 10.0 mi South 26.5 mph 34.5 mph N/A   Mostly Cloudy
6:10 AM 68.0 °F 62.6 °F 83% 29.59 in 10.0 mi South 26.5 mph 29.9 mph N/A   Mostly Cloudy
6:30 AM 69.8 °F 62.6 °F 78% 29.59 in 10.0 mi South 20.7 mph 27.6 mph N/A   Overcast
6:40 AM 69.8 °F 62.6 °F 78% 29.59 in 10.0 mi SSW 19.6 mph 28.8 mph N/A   Overcast
6:50 AM 69.8 °F 64.4 °F 83% 29.59 in 5.0 mi SSW 23.0 mph 34.5 mph N/A Rain Rain
7:45 AM 60.8 °F 60.8 °F 100% 29.67 in 2.5 mi WSW 6.9 mph 16.1 mph N/A Rain Light Rain
8:45 AM 60.8 °F 60.8 °F 100% 29.68 in 7.0 mi South 9.2 mph - N/A   Overcast
9:47 AM 60.8 °F 60.8 °F 100% 29.68 in 10.0 mi SW 5.8 mph - N/A   Overcast
11:49 AM 64.4 °F 60.8 °F 88% 29.67 in 10.0 mi SSW 9.2 mph - N/A   Mostly Cloudy
12:52 PM 68.0 °F 59.0 °F 73% 29.67 in 10.0 mi SW 8.1 mph - N/A   Scattered Clouds
1:50 PM 73.4 °F 55.4 °F 53% 29.66 in 10.0 mi WSW 12.7 mph 17.3 mph N/A   Scattered Clouds
2:50 PM 73.4 °F 48.2 °F 41% 29.64 in 10.0 mi West 11.5 mph - N/A   Clear
3:50 PM 73.4 °F 48.2 °F 41% 29.64 in 10.0 mi WNW 11.5 mph - N/A   Clear
4:50 PM 73.4 °F 48.2 °F 41% 29.64 in 10.0 mi West 6.9 mph - N/A   Clear
5:50 PM 66.2 °F 48.2 °F 52% 29.64 in 10.0 mi Calm Calm - N/A   Clear
6:48 PM 62.6 °F 50.0 °F 63% 29.66 in 10.0 mi Calm Calm - N/A   Clear
7:50 PM 55.4 °F 51.8 °F 88% 29.67 in 10.0 mi Calm Calm - N/A   Clear
8:50 PM 51.8 °F 50.0 °F 94% 29.69 in 10.0 mi Calm Calm - N/A   Scattered Clouds
9:10 PM 50.0 °F 48.2 °F 94% 29.69 in 10.0 mi Calm Calm - N/A   Clear
9:50 PM 48.2 °F 46.4 °F 93% 29.70 in 10.0 mi Calm Calm - N/A   Clear
10:10 PM 50.0 °F 50.0 °F 100% 29.71 in 10.0 mi Calm Calm - N/A   Clear
10:30 PM 50.0 °F 50.0 °F 100% 29.71 in 10.0 mi Calm Calm - N/A   Clear
10:50 PM 48.2 °F 48.2 °F 100% 29.71 in 10.0 mi Calm Calm - N/A   Clear
11:15 PM 46.4 °F 46.4 °F 100% 29.71 in 10.0 mi Calm Calm - N/A   Clear
11:35 PM 46.4 °F 46.4 °F 100% 29.71 in 10.0 mi Calm Calm - N/A   Clear
11:55 PM 46.4 °F 46.4 °F 100% 29.70 in 10.0 mi Calm Calm - N/A   Clear